Kozani Airport, Greece

10:48 AM EET on February 12, 2016 (GMT +0200)
Filippos

Weather History for LGKZ - November, 2011

Change the Weather History Date:

Wednesday, November 9, 2011

  Actual Average Record
Temperature  
Mean Temperature 52 °F -  
Max Temperature 57 °F - - ()
Min Temperature 46 °F - - ()
Degree Days  
Heating Degree Days 14    
Growing Degree Days 2 (Base 50)    
Moisture  
Dew Point 45 °F    
Average Humidity 87    
Maximum Humidity 93    
Minimum Humidity 67    
Precipitation  
Precipitation 0.00 in - - ()
Sea Level Pressure  
Sea Level Pressure 30.22 in    
Wind  
Wind Speed 1 mph ()    
Max Wind Speed 7 mph    
Max Gust Speed -    
Visibility 5.5 miles    
Events      
T = Trace of Precipitation, MM = Missing Value Source: Averaged Metar Reports

Daily Weather History Graph

Daily Weather History Graph

Search for Another Location

Airport or City:

Trip Planner

Search our weather history database for the weather conditions in past years. The results will help you decide how hot, cold, wet, or windy it might be!

Date:

Astronomy

Nov. 09, 2011 Rise Set
Actual Time 7:11 AM EET 5:21 PM EET
Civil Twilight 6:42 AM EET 5:50 PM EET
Nautical Twilight 6:09 AM EET 6:22 PM EET
Astronomical Twilight 5:37 AM EET 6:54 PM EET
Moon 4:23 PM EET (11/9) 5:49 AM EET (11/9)
Length of Visible Light 11h 08m
Length of Day
10h 10m
Waxing Gibbous, 98% of the Moon is Illuminated
Nov 9
Waxing Gibbous
Nov 10
Full
Nov 18
Last Quarter
Nov 25
New
Dec 2
First Quarter

Hourly Weather History & Observations

Time (EET) Temp. Windchill Dew Point Humidity Pressure Visibility Wind Dir Wind Speed Gust Speed Precip Events Conditions
12:20 AM 48.2 °F - 46.4 °F 93% 30.33 in - Calm Calm - N/A   Unknown
12:50 AM 48.2 °F - 46.4 °F 93% 30.33 in - Variable 1.2 mph - N/A   Unknown
1:20 AM 48.2 °F - 46.4 °F 93% 30.33 in - Variable 1.2 mph - N/A   Unknown
1:50 AM 48.2 °F - 46.4 °F 93% 30.30 in - Calm Calm - N/A   Unknown
2:20 AM 48.2 °F - 44.6 °F 87% 30.30 in - Calm Calm - N/A   Unknown
2:50 AM 48.2 °F - 44.6 °F 87% 30.30 in - Variable 1.2 mph - N/A   Unknown
3:20 AM 48.2 °F - 44.6 °F 87% 30.27 in - Calm Calm - N/A   Unknown
3:50 AM 48.2 °F - 44.6 °F 87% 30.27 in - Calm Calm - N/A   Unknown
4:20 AM 48.2 °F - 44.6 °F 87% 30.27 in - Variable 2.3 mph - N/A   Unknown
4:50 AM 48.2 °F - 44.6 °F 87% 30.27 in - Variable 1.2 mph - N/A   Unknown
5:20 AM 48.2 °F - 44.6 °F 87% 30.27 in - Variable 1.2 mph - N/A   Unknown
5:50 AM 48.2 °F - 44.6 °F 87% 30.27 in - Variable 2.3 mph - N/A   Unknown
6:20 AM 48.2 °F - 44.6 °F 87% 30.24 in - Variable 1.2 mph - N/A   Unknown
6:50 AM 48.2 °F - 44.6 °F 87% 30.24 in - Calm Calm - N/A   Unknown
7:50 AM 48.2 °F - 44.6 °F 87% 30.24 in 4.3 mi Calm Calm - N/A   Overcast
8:50 AM 48.2 °F - 44.6 °F 87% 30.24 in 3.1 mi Calm Calm - N/A   Overcast
9:50 AM 48.2 °F - 44.6 °F 87% 30.27 in 5.0 mi Calm Calm - N/A   Overcast
10:50 AM 48.2 °F - 44.6 °F 87% 30.24 in 5.0 mi Calm Calm - N/A   Overcast
11:50 AM 50.0 °F - 44.6 °F 82% 30.24 in 5.0 mi Calm Calm - N/A   Overcast
12:50 PM 51.8 °F - 46.4 °F 82% 30.21 in 6.2 mi Calm Calm - N/A   Scattered Clouds
1:50 PM 55.4 °F - 48.2 °F 77% 30.21 in 6.2 mi Calm Calm - N/A   Scattered Clouds
2:50 PM 53.6 °F - 46.4 °F 77% 30.15 in 6.2 mi Calm Calm - N/A   Mostly Cloudy
3:50 PM 57.2 °F - 46.4 °F 67% 30.15 in 6.2 mi Calm Calm - N/A   Mostly Cloudy
4:50 PM 51.8 °F - 46.4 °F 82% 30.15 in 6.2 mi Calm Calm - N/A   Mostly Cloudy
5:50 PM 50.0 °F - 46.4 °F 87% 30.18 in 6.2 mi Calm Calm - N/A   Mostly Cloudy
6:50 PM 48.2 °F - 44.6 °F 87% 30.15 in 6.2 mi Calm Calm - N/A   Mostly Cloudy
7:50 PM 48.2 °F - 44.6 °F 87% 30.15 in 6.2 mi Calm Calm - N/A   Mostly Cloudy
8:20 PM 48.2 °F - 44.6 °F 87% 30.15 in - Variable 3.5 mph - N/A   Unknown
8:50 PM 46.4 °F 44.3 °F 44.6 °F 93% 30.12 in - NNW 4.6 mph - N/A   Unknown
9:20 PM 46.4 °F 44.3 °F 44.6 °F 93% 30.12 in - North 4.6 mph - N/A   Unknown
9:50 PM 46.4 °F - 44.6 °F 93% 30.15 in - Calm Calm - N/A   Unknown
10:20 PM 46.4 °F - 44.6 °F 93% 30.15 in - Calm Calm - N/A   Unknown
10:50 PM 48.2 °F - 44.6 °F 87% 30.12 in - NW 5.8 mph - N/A   Unknown
11:20 PM 48.2 °F - 44.6 °F 87% 30.12 in - Variable 3.5 mph - N/A   Unknown
11:50 PM 50.0 °F - 46.4 °F 87% 30.12 in - NNW 6.9 mph - N/A   Unknown